Location: Bennemühlen
(52.5740°N, 9.7135°E)
Time: 05:57:25
(UTC+00:00)

A-11 Canister half - Pass Details

Date: 20 February 2026
Orbit: 1512 x 1687 km, 47.2° (Epoch: 5 March)

Event Time Altitude Azimuth Distance (km) Brightness Sun altitude
Rises 19:41:09 0° 222° (SW) 4,933 11.9 -27.4°
Reaches altitude 10° 19:44:31 10° 216° (SW) 3,946 11.3 -27.9°
Enters shadow 19:53:36 43° 153° (SSE) 2,202 9.4 -29.2°
Maximum altitude 19:53:51 44° 150° (SSE) 2,199 - -29.2°
Drops below altitude 10° 20:03:00 10° 83° (E) 3,881 - -30.5°
Sets 20:06:17 0° 77° (ENE) 4,847 - -30.9°
